| time (UTC) | temp C | wind direction | speed KPH | gust KPH | rain 1hr cm | rain 24hr cm | rain mn cm | humidity % | barometer mb |
| 20260502224901 | 31 | 208 | 6.4 | 11.3 | 0.00 | 0.00 | 0.00 | 18 | 1011.7 |
| 20260502224356 | 31 | 165 | 6.4 | 9.7 | 0.00 | 0.00 | 0.00 | 18 | 1011.8 |
| 20260502223854 | 31 | 267 | 3.2 | 4.8 | 0.00 | 0.00 | 0.00 | 18 | 1011.8 |
| 20260502223352 | 30 | 35 | 0.0 | 0.0 | 0.00 | 0.00 | 0.00 | 18 | 1012.1 |
| 20260502222850 | 31 | 200 | 8.0 | 11.3 | 0.00 | 0.00 | 0.00 | 18 | 1012.1 |
| 20260502222347 | 30 | 136 | 12.9 | 14.5 | 0.00 | 0.00 | 0.00 | 18 | 1011.9 |
| 20260502221843 | 30 | 101 | 3.2 | 6.4 | 0.00 | 0.00 | 0.00 | 19 | 1012.3 |
| 20260502221339 | 30 | 31 | 1.6 | 3.2 | 0.00 | 0.00 | 0.00 | 18 | 1012.3 |
| 20260502220837 | 30 | 165 | 9.7 | 12.9 | 0.00 | 0.00 | 0.00 | 18 | 1012.6 |
| 20260502220332 | 30 | 189 | 8.0 | 9.7 | 0.00 | 0.00 | 0.00 | 19 | 1012.5 |
| 20260502215829 | 30 | 108 | 6.4 | 6.4 | 0.00 | 0.00 | 0.00 | 18 | 1012.7 |
| 20260502215327 | 30 | 127 | 14.5 | 14.5 | 0.00 | 0.00 | 0.00 | 18 | 1012.7 |
| 20260502214823 | 30 | 107 | 14.5 | 17.7 | 0.00 | 0.00 | 0.00 | 18 | 1012.9 |
| 20260502214320 | 30 | 67 | 12.9 | 17.7 | 0.00 | 0.00 | 0.00 | 18 | 1012.9 |
| 20260502213817 | 30 | 49 | 9.7 | 12.9 | 0.00 | 0.00 | 0.00 | 18 | 1012.9 |
| 20260502213314 | 30 | 102 | 12.9 | 14.5 | 0.00 | 0.00 | 0.00 | 18 | 1013.0 |
| 20260502212813 | 30 | 249 | 4.8 | 6.4 | 0.00 | 0.00 | 0.00 | 18 | 1013.0 |
| 20260502212311 | 31 | 139 | 17.7 | 17.7 | 0.00 | 0.00 | 0.00 | 18 | 1013.1 |
| 20260502211808 | 30 | 154 | 9.7 | 9.7 | 0.00 | 0.00 | 0.00 | 18 | 1013.2 |
| 20260502211303 | 31 | 148 | 9.7 | 11.3 | 0.00 | 0.00 | 0.00 | 18 | 1013.3 |
| 20260502210801 | 31 | 109 | 14.5 | 17.7 | 0.00 | 0.00 | 0.00 | 18 | 1013.2 |
| 20260502210259 | 30 | 358 | 8.0 | 11.3 | 0.00 | 0.00 | 0.00 | 18 | 1013.2 |
| 20260502205755 | 30 | 108 | 8.0 | 9.7 | 0.00 | 0.00 | 0.00 | 19 | 1013.5 |
| 20260502205251 | 30 | 136 | 8.0 | 11.3 | 0.00 | 0.00 | 0.00 | 18 | 1013.6 |
| 20260502204749 | 30 | 92 | 9.7 | 11.3 | 0.00 | 0.00 | 0.00 | 19 | 1013.5 |
| 20260502204246 | 30 | 128 | 16.1 | 17.7 | 0.00 | 0.00 | 0.00 | 19 | 1013.5 |
| 20260502203743 | 31 | 146 | 17.7 | 22.5 | 0.00 | 0.00 | 0.00 | 18 | 1013.7 |
| 20260502203241 | 30 | 31 | 1.6 | 1.6 | 0.00 | 0.00 | 0.00 | 19 | 1013.8 |
| 20260502202735 | 30 | 68 | 12.9 | 16.1 | 0.00 | 0.00 | 0.00 | 19 | 1013.8 |
| 20260502202234 | 30 | 93 | 8.0 | 11.3 | 0.00 | 0.00 | 0.00 | 17 | 1013.9 |
| 20260502201731 | 30 | 146 | 4.8 | 6.4 | 0.00 | 0.00 | 0.00 | 16 | 1014.0 |
| 20260502201227 | 29 | 139 | 14.5 | 16.1 | 0.00 | 0.00 | 0.00 | 20 | 1014.0 |
| 20260502200723 | 29 | 276 | 3.2 | 4.8 | 0.00 | 0.00 | 0.00 | 18 | 1014.0 |
| 20260502200220 | 30 | 91 | 14.5 | 16.1 | 0.00 | 0.00 | 0.00 | 19 | 1014.0 |
| 20260502195718 | 30 | 56 | 6.4 | 9.7 | 0.00 | 0.00 | 0.00 | 20 | 1014.1 |
| 20260502195214 | 30 | 66 | 4.8 | 6.4 | 0.00 | 0.00 | 0.00 | 20 | 1014.5 |
| 20260502194711 | 30 | 73 | 14.5 | 24.1 | 0.00 | 0.00 | 0.00 | 20 | 1014.4 |
| 20260502194209 | 29 | 76 | 16.1 | 17.7 | 0.00 | 0.00 | 0.00 | 22 | 1014.1 |
| 20260502193704 | 28 | 115 | 9.7 | 12.9 | 0.00 | 0.00 | 0.00 | 19 | 1014.4 |
| 20260502193202 | 29 | 131 | 20.9 | 22.5 | 0.00 | 0.00 | 0.00 | 20 | 1014.4 |
| 20260502192656 | 29 | 114 | 14.5 | 20.9 | 0.00 | 0.00 | 0.00 | 21 | 1014.6 |
| 20260502192154 | 28 | 81 | 9.7 | 14.5 | 0.00 | 0.00 | 0.00 | 23 | 1014.5 |
| 20260502191651 | 28 | 72 | 3.2 | 3.2 | 0.00 | 0.00 | 0.00 | 22 | 1014.6 |
| 20260502191148 | 29 | 104 | 8.0 | 12.9 | 0.00 | 0.00 | 0.00 | 20 | 1014.7 |
| 20260502190646 | 28 | 129 | 22.5 | 27.4 | 0.00 | 0.00 | 0.00 | 22 | 1014.6 |
| 20260502190139 | 28 | 122 | 14.5 | 20.9 | 0.00 | 0.00 | 0.00 | 23 | 1015.0 |
| 20260502185638 | 28 | 86 | 9.7 | 12.9 | 0.00 | 0.00 | 0.00 | 23 | 1014.9 |
| 20260502185135 | 28 | 157 | 12.9 | 16.1 | 0.00 | 0.00 | 0.00 | 22 | 1015.0 |
| 20260502184631 | 28 | 123 | 17.7 | 17.7 | 0.00 | 0.00 | 0.00 | 23 | 1015.2 |
| 20260502184127 | 28 | 122 | 19.3 | 24.1 | 0.00 | 0.00 | 0.00 | 23 | 1015.1 |
| 20260502183623 | 28 | 93 | 16.1 | 20.9 | 0.00 | 0.00 | 0.00 | 23 | 1015.3 |
| 20260502183120 | 28 | 159 | 24.1 | 27.4 | 0.00 | 0.00 | 0.00 | 21 | 1015.1 |
| 20260502182614 | 28 | 92 | 9.7 | 12.9 | 0.00 | 0.00 | 0.00 | 22 | 1015.1 |
| 20260502182110 | 28 | 96 | 24.1 | 27.4 | 0.00 | 0.00 | 0.00 | 21 | 1015.6 |
| 20260502181609 | 28 | 116 | 20.9 | 22.5 | 0.00 | 0.00 | 0.00 | 21 | 1015.4 |
| 20260502181107 | 28 | 84 | 8.0 | 11.3 | 0.00 | 0.00 | 0.00 | 21 | 1015.5 |
| 20260502180604 | 28 | 109 | 19.3 | 22.5 | 0.00 | 0.00 | 0.00 | 21 | 1015.5 |
| 20260502170518 | 27 | 115 | 22.5 | 25.7 | 0.00 | 0.00 | 0.00 | 22 | 1015.7 |
| 20260502164002 | 27 | 68 | 11.3 | 16.1 | 0.00 | 0.00 | 0.00 | 21 | 1015.7 |
| 20260502163457 | 26 | 112 | 29.0 | 38.6 | 0.00 | 0.00 | 0.00 | 21 | 1015.5 |
| 20260502162955 | 26 | 94 | 17.7 | 17.7 | 0.00 | 0.00 | 0.00 | 21 | 1015.6 |
| 20260502162452 | 26 | 128 | 19.3 | 22.5 | 0.00 | 0.00 | 0.00 | 22 | 1015.6 |
| 20260502161949 | 26 | 104 | 19.3 | 25.7 | 0.00 | 0.00 | 0.00 | 22 | 1015.6 |
| 20260502161445 | 26 | 92 | 25.7 | 30.6 | 0.00 | 0.00 | 0.00 | 21 | 1015.4 |
| 20260502160944 | 26 | 106 | 24.1 | 29.0 | 0.00 | 0.00 | 0.00 | 22 | 1015.4 |
| 20260502160441 | 26 | 104 | 20.9 | 24.1 | 0.00 | 0.00 | 0.00 | 22 | 1015.3 |
| 20260502151929 | 25 | 112 | 17.7 | 20.9 | 0.00 | 0.00 | 0.00 | 22 | 1015.2 |
| 20260502151426 | 25 | 86 | 4.8 | 12.9 | 0.00 | 0.00 | 0.00 | 22 | 1015.0 |
| 20260502150924 | 25 | 105 | 19.3 | 20.9 | 0.00 | 0.00 | 0.00 | 22 | 1015.1 |
| 20260502150420 | 25 | 115 | 16.1 | 17.7 | 0.00 | 0.00 | 0.00 | 22 | 1015.0 |
| 20260502130306 | 18 | 77 | 1.6 | 3.2 | 0.00 | 0.00 | 0.00 | 27 | 1013.5 |
| 20260502123751 | 18 | 67 | 3.2 | 3.2 | 0.00 | 0.00 | 0.00 | 27 | 1013.1 |
| 20260502123248 | 18 | 33 | 0.0 | 1.6 | 0.00 | 0.00 | 0.00 | 27 | 1012.9 |
| 20260502122744 | 19 | 36 | 0.0 | 1.6 | 0.00 | 0.00 | 0.00 | 26 | 1012.8 |
| 20260502122241 | 19 | 45 | 0.0 | 1.6 | 0.00 | 0.00 | 0.00 | 27 | 1012.9 |
| 20260502121739 | 19 | 32 | 0.0 | 0.0 | 0.00 | 0.00 | 0.00 | 27 | 1012.9 |
| 20260502121237 | 19 | 32 | 0.0 | 1.6 | 0.00 | 0.00 | 0.00 | 26 | 1012.8 |
| 20260502120733 | 19 | 36 | 0.0 | 1.6 | 0.00 | 0.00 | 0.00 | 26 | 1013.1 |
| 20260502120230 | 19 | 34 | 1.6 | 1.6 | 0.00 | 0.00 | 0.00 | 26 | 1012.9 |
| 20260502115728 | 19 | 40 | 0.0 | 0.0 | 0.00 | 0.00 | 0.00 | 26 | 1013.0 |
| 20260502115224 | 19 | 33 | 0.0 | 1.6 | 0.00 | 0.00 | 0.00 | 26 | 1012.9 |
| 20260502114720 | 20 | 30 | 3.2 | 3.2 | 0.00 | 0.00 | 0.00 | 26 | 1012.9 |
| 20260502114218 | 20 | 41 | 1.6 | 1.6 | 0.00 | 0.00 | 0.00 | 26 | 1012.8 |
| 20260502113714 | 20 | 32 | 1.6 | 1.6 | 0.00 | 0.00 | 0.00 | 26 | 1012.9 |
| 20260502113212 | 20 | 35 | 0.0 | 1.6 | 0.00 | 0.00 | 0.00 | 26 | 1012.8 |
| 20260502112710 | 20 | 337 | 3.2 | 4.8 | 0.00 | 0.00 | 0.00 | 25 | 1012.8 |
| 20260502112208 | 20 | 19 | 1.6 | 1.6 | 0.00 | 0.00 | 0.00 | 25 | 1012.8 |
| 20260502111705 | 20 | 8 | 3.2 | 3.2 | 0.00 | 0.00 | 0.00 | 26 | 1012.9 |
| 20260502111202 | 20 | 12 | 1.6 | 1.6 | 0.00 | 0.00 | 0.00 | 26 | 1012.6 |
| 20260502110700 | 20 | 5 | 4.8 | 6.4 | 0.00 | 0.00 | 0.00 | 26 | 1012.8 |
| 20260502110157 | 20 | 33 | 1.6 | 3.2 | 0.00 | 0.00 | 0.00 | 25 | 1012.8 |
| 20260502105654 | 20 | 39 | 1.6 | 1.6 | 0.00 | 0.00 | 0.00 | 26 | 1012.8 |
| 20260502105151 | 21 | 33 | 1.6 | 1.6 | 0.00 | 0.00 | 0.00 | 26 | 1012.7 |
| 20260502104648 | 21 | 27 | 1.6 | 1.6 | 0.00 | 0.00 | 0.00 | 26 | 1012.9 |
| 20260502104146 | 21 | 27 | 0.0 | 1.6 | 0.00 | 0.00 | 0.00 | 25 | 1012.8 |
| 20260502103643 | 22 | 34 | 0.0 | 0.0 | 0.00 | 0.00 | 0.00 | 25 | 1012.8 |
| 20260502103141 | 22 | 44 | 1.6 | 1.6 | 0.00 | 0.00 | 0.00 | 25 | 1012.7 |
| 20260502102638 | 21 | 25 | 1.6 | 3.2 | 0.00 | 0.00 | 0.00 | 25 | 1012.5 |
| 20260502102134 | 21 | 50 | 1.6 | 1.6 | 0.00 | 0.00 | 0.00 | 25 | 1012.6 |
| 20260502101632 | 21 | 43 | 0.0 | 0.0 | 0.00 | 0.00 | 0.00 | 25 | 1012.5 |
| 20260502101131 | 22 | 286 | 3.2 | 3.2 | 0.00 | 0.00 | 0.00 | 24 | 1012.7 |
| 20260502100629 | 23 | 31 | 1.6 | 1.6 | 0.00 | 0.00 | 0.00 | 23 | 1012.6 |
| 20260502100127 | 23 | 41 | 0.0 | 1.6 | 0.00 | 0.00 | 0.00 | 23 | 1012.6 |
| 20260502091101 | 23 | 17 | 1.6 | 3.2 | 0.00 | 0.00 | 0.00 | 22 | 1012.1 |
| 20260502090558 | 23 | 98 | 3.2 | 6.4 | 0.00 | 0.00 | 0.00 | 22 | 1012.2 |
| 20260502071453 | 23 | 45 | 4.8 | 6.4 | 0.00 | 0.00 | 0.00 | 19 | 1012.3 |
| 20260502070951 | 23 | 343 | 9.7 | 12.9 | 0.00 | 0.00 | 0.00 | 18 | 1012.6 |
| 20260502070449 | 23 | 331 | 11.3 | 11.3 | 0.00 | 0.00 | 0.00 | 19 | 1012.2 |
| 20260502065947 | 24 | 27 | 4.8 | 4.8 | 0.00 | 0.00 | 0.00 | 19 | 1012.2 |
| 20260502065445 | 25 | 25 | 4.8 | 4.8 | 0.00 | 0.00 | 0.00 | 19 | 1012.1 |
| 20260502064943 | 25 | 324 | 3.2 | 6.4 | 0.00 | 0.00 | 0.00 | 19 | 1012.1 |
| 20260502064440 | 25 | 7 | 4.8 | 6.4 | 0.00 | 0.00 | 0.00 | 19 | 1012.0 |
| 20260502063937 | 25 | 24 | 3.2 | 3.2 | 0.00 | 0.00 | 0.00 | 19 | 1012.2 |
| 20260502063435 | 25 | 359 | 4.8 | 4.8 | 0.00 | 0.00 | 0.00 | 18 | 1012.1 |
| 20260502062932 | 25 | 355 | 6.4 | 11.3 | 0.00 | 0.00 | 0.00 | 18 | 1012.2 |
| 20260502062429 | 25 | 35 | 3.2 | 3.2 | 0.00 | 0.00 | 0.00 | 17 | 1011.9 |
| 20260502061928 | 25 | 25 | 3.2 | 4.8 | 0.00 | 0.00 | 0.00 | 17 | 1011.9 |
| 20260502061426 | 25 | 33 | 4.8 | 4.8 | 0.00 | 0.00 | 0.00 | 17 | 1012.0 |
| 20260502060921 | 26 | 76 | 3.2 | 4.8 | 0.00 | 0.00 | 0.00 | 17 | 1011.9 |
| 20260502060417 | 26 | 11 | 4.8 | 6.4 | 0.00 | 0.00 | 0.00 | 16 | 1011.9 |
| 20260502055914 | 26 | 13 | 8.0 | 12.9 | 0.00 | 0.00 | 0.00 | 16 | 1011.8 |
| 20260502055411 | 26 | 29 | 6.4 | 12.9 | 0.00 | 0.00 | 0.00 | 16 | 1011.8 |
| 20260502054906 | 25 | 356 | 3.2 | 6.4 | 0.00 | 0.00 | 0.00 | 17 | 1011.7 |
| 20260502054403 | 25 | 326 | 12.9 | 14.5 | 0.00 | 0.00 | 0.00 | 17 | 1012.0 |
| 20260502053900 | 23 | 339 | 14.5 | 16.1 | 0.00 | 0.00 | 0.00 | 17 | 1011.9 |
| 20260502053357 | 23 | 290 | 8.0 | 9.7 | 0.00 | 0.00 | 0.00 | 17 | 1011.6 |
| 20260502052854 | 23 | 351 | 8.0 | 9.7 | 0.00 | 0.00 | 0.00 | 17 | 1011.8 |
| 20260502052353 | 23 | 356 | 6.4 | 6.4 | 0.00 | 0.00 | 0.00 | 17 | 1011.9 |
| 20260502051850 | 23 | 344 | 6.4 | 6.4 | 0.00 | 0.00 | 0.00 | 17 | 1011.7 |
| 20260502051349 | 23 | 324 | 6.4 | 6.4 | 0.00 | 0.00 | 0.00 | 17 | 1011.8 |
| 20260502050845 | 24 | 328 | 6.4 | 6.4 | 0.00 | 0.00 | 0.00 | 17 | 1011.5 |
| 20260502050341 | 24 | 340 | 9.7 | 9.7 | 0.00 | 0.00 | 0.00 | 16 | 1011.4 |
| 20260502045838 | 25 | 336 | 6.4 | 6.4 | 0.00 | 0.00 | 0.00 | 16 | 1011.6 |
| 20260502045335 | 25 | 328 | 9.7 | 9.7 | 0.00 | 0.00 | 0.00 | 16 | 1011.5 |
| 20260502044832 | 25 | 331 | 6.4 | 6.4 | 0.00 | 0.00 | 0.00 | 16 | 1011.4 |
| 20260502044328 | 25 | 17 | 3.2 | 4.8 | 0.00 | 0.00 | 0.00 | 16 | 1011.2 |
| 20260502043826 | 25 | 336 | 9.7 | 11.3 | 0.00 | 0.00 | 0.00 | 16 | 1011.2 |
| 20260502043323 | 26 | 339 | 9.7 | 12.9 | 0.00 | 0.00 | 0.00 | 16 | 1011.2 |
| 20260502042822 | 26 | 312 | 11.3 | 14.5 | 0.00 | 0.00 | 0.00 | 15 | 1011.0 |
| 20260502042320 | 26 | 347 | 11.3 | 14.5 | 0.00 | 0.00 | 0.00 | 15 | 1011.1 |
| 20260502041817 | 26 | 337 | 8.0 | 11.3 | 0.00 | 0.00 | 0.00 | 15 | 1010.9 |
| 20260502041314 | 25 | 351 | 9.7 | 12.9 | 0.00 | 0.00 | 0.00 | 15 | 1010.9 |
| 20260502040811 | 25 | 12 | 1.6 | 1.6 | 0.00 | 0.00 | 0.00 | 17 | 1010.9 |
| 20260502040308 | 26 | 105 | 1.6 | 3.2 | 0.00 | 0.00 | 0.00 | 16 | 1010.6 |
| 20260502035804 | 26 | 35 | 0.0 | 1.6 | 0.00 | 0.00 | 0.00 | 16 | 1010.6 |
| 20260502035301 | 26 | 37 | 1.6 | 1.6 | 0.00 | 0.00 | 0.00 | 16 | 1010.5 |
| 20260502034758 | 26 | 325 | 6.4 | 6.4 | 0.00 | 0.00 | 0.00 | 16 | 1010.6 |
| 20260502034257 | 26 | 27 | 0.0 | 0.0 | 0.00 | 0.00 | 0.00 | 16 | 1010.6 |
| 20260502033754 | 26 | 32 | 0.0 | 1.6 | 0.00 | 0.00 | 0.00 | 16 | 1010.5 |
| 20260502033252 | 26 | 341 | 3.2 | 4.8 | 0.00 | 0.00 | 0.00 | 16 | 1010.4 |
| 20260502032748 | 27 | 318 | 6.4 | 6.4 | 0.00 | 0.00 | 0.00 | 16 | 1010.3 |
| 20260502032244 | 26 | 216 | 6.4 | 6.4 | 0.00 | 0.00 | 0.00 | 16 | 1010.2 |
| 20260502031743 | 26 | 30 | 0.0 | 1.6 | 0.00 | 0.00 | 0.00 | 16 | 1010.2 |
| 20260502031240 | 27 | 26 | 1.6 | 1.6 | 0.00 | 0.00 | 0.00 | 16 | 1010.0 |
| 20260502030739 | 27 | 14 | 1.6 | 1.6 | 0.00 | 0.00 | 0.00 | 16 | 1009.9 |
| 20260502030236 | 27 | 359 | 1.6 | 1.6 | 0.00 | 0.00 | 0.00 | 16 | 1009.9 |
| 20260502025733 | 27 | 33 | 3.2 | 3.2 | 0.00 | 0.00 | 0.00 | 16 | 1009.9 |
| 20260502025231 | 27 | 340 | 4.8 | 6.4 | 0.00 | 0.00 | 0.00 | 16 | 1009.9 |
| 20260502024729 | 27 | 13 | 3.2 | 3.2 | 0.00 | 0.00 | 0.00 | 16 | 1009.8 |
| 20260502024226 | 27 | 9 | 3.2 | 4.8 | 0.00 | 0.00 | 0.00 | 16 | 1010.0 |
| 20260502023724 | 27 | 68 | 3.2 | 3.2 | 0.00 | 0.00 | 0.00 | 15 | 1009.9 |
| 20260502023221 | 28 | 30 | 6.4 | 6.4 | 0.00 | 0.00 | 0.00 | 15 | 1009.7 |
| 20260502022719 | 28 | 307 | 6.4 | 6.4 | 0.00 | 0.00 | 0.00 | 15 | 1009.7 |
| 20260502022215 | 28 | 359 | 9.7 | 11.3 | 0.00 | 0.00 | 0.00 | 15 | 1009.4 |
| 20260502021713 | 28 | 328 | 8.0 | 11.3 | 0.00 | 0.00 | 0.00 | 15 | 1009.5 |
| 20260502021210 | 28 | 325 | 6.4 | 6.4 | 0.00 | 0.00 | 0.00 | 15 | 1009.7 |
| 20260502020707 | 28 | 349 | 4.8 | 4.8 | 0.00 | 0.00 | 0.00 | 15 | 1009.7 |
| 20260502020204 | 29 | 324 | 6.4 | 9.7 | 0.00 | 0.00 | 0.00 | 14 | 1009.4 |
| 20260502015702 | 29 | 296 | 8.0 | 11.3 | 0.00 | 0.00 | 0.00 | 14 | 1009.3 |
| 20260502015157 | 30 | 338 | 17.7 | 17.7 | 0.00 | 0.00 | 0.00 | 14 | 1009.4 |
| 20260502014655 | 30 | 340 | 9.7 | 16.1 | 0.00 | 0.00 | 0.00 | 14 | 1009.4 |
| 20260502014152 | 30 | 336 | 8.0 | 9.7 | 0.00 | 0.00 | 0.00 | 14 | 1009.5 |
| 20260502013648 | 30 | 324 | 14.5 | 17.7 | 0.00 | 0.00 | 0.00 | 14 | 1009.4 |
| 20260502013143 | 30 | 302 | 6.4 | 6.4 | 0.00 | 0.00 | 0.00 | 14 | 1009.2 |
| 20260502012641 | 30 | 302 | 9.7 | 14.5 | 0.00 | 0.00 | 0.00 | 14 | 1009.2 |
| 20260502012139 | 30 | 51 | 6.4 | 6.4 | 0.00 | 0.00 | 0.00 | 14 | 1009.1 |
| 20260502011636 | 30 | 245 | 8.0 | 11.3 | 0.00 | 0.00 | 0.00 | 14 | 1009.3 |
| 20260502011131 | 30 | 227 | 9.7 | 11.3 | 0.00 | 0.00 | 0.00 | 14 | 1009.4 |
| 20260502010629 | 30 | 309 | 4.8 | 4.8 | 0.00 | 0.00 | 0.00 | 14 | 1009.0 |
| 20260502010126 | 31 | 348 | 6.4 | 9.7 | 0.00 | 0.00 | 0.00 | 14 | 1009.2 |
| 20260502005623 | 31 | 315 | 8.0 | 9.7 | 0.00 | 0.00 | 0.00 | 14 | 1009.2 |
| 20260502005121 | 31 | 273 | 11.3 | 11.3 | 0.00 | 0.00 | 0.00 | 14 | 1009.2 |
| 20260502004616 | 31 | 330 | 9.7 | 11.3 | 0.00 | 0.00 | 0.00 | 14 | 1009.2 |
| 20260502004113 | 31 | 348 | 9.7 | 11.3 | 0.00 | 0.00 | 0.00 | 14 | 1009.3 |
| 20260502003611 | 32 | 6 | 1.6 | 3.2 | 0.00 | 0.00 | 0.00 | 14 | 1009.1 |
| 20260502003108 | 31 | 11 | 3.2 | 4.8 | 0.00 | 0.00 | 0.00 | 15 | 1009.2 |
| 20260502002604 | 30 | 86 | 3.2 | 3.2 | 0.00 | 0.00 | 0.00 | 15 | 1009.2 |
| 20260502002102 | 30 | 242 | 14.5 | 14.5 | 0.00 | 0.00 | 0.00 | 15 | 1009.1 |
| 20260502001559 | 31 | 242 | 14.5 | 16.1 | 0.00 | 0.00 | 0.00 | 15 | 1009.1 |
| 20260502001056 | 30 | 42 | 1.6 | 1.6 | 0.00 | 0.00 | 0.00 | 15 | 1009.3 |
| 20260502000554 | 31 | 107 | 4.8 | 4.8 | 0.00 | 0.00 | 0.00 | 16 | 1009.5 |
| 20260502000051 | 30 | 185 | 4.8 | 4.8 | 0.00 | 0.00 | 0.00 | 16 | 1009.3 |
| 20260501235547 | 31 | 163 | 6.4 | 6.4 | 0.00 | 0.00 | 0.00 | 16 | 1009.4 |
| 20260501235043 | 30 | 261 | 6.4 | 6.4 | 0.00 | 0.00 | 0.00 | 16 | 1009.4 |
| 20260501234539 | 30 | 242 | 11.3 | 12.9 | 0.00 | 0.00 | 0.00 | 17 | 1009.5 |
| 20260501234037 | 30 | 179 | 8.0 | 11.3 | 0.00 | 0.00 | 0.00 | 18 | 1009.3 |
| 20260501233535 | 30 | 128 | 6.4 | 6.4 | 0.00 | 0.00 | 0.00 | 18 | 1009.5 |
| 20260501233031 | 30 | 233 | 11.3 | 12.9 | 0.00 | 0.00 | 0.00 | 18 | 1009.2 |
| 20260501232527 | 31 | 232 | 9.7 | 11.3 | 0.00 | 0.00 | 0.00 | 17 | 1009.6 |
| 20260501232025 | 30 | 239 | 9.7 | 12.9 | 0.00 | 0.00 | 0.00 | 18 | 1009.6 |
| 20260501231523 | 30 | 265 | 6.4 | 6.4 | 0.00 | 0.00 | 0.00 | 19 | 1009.8 |
| 20260501231021 | 30 | 160 | 6.4 | 11.3 | 0.00 | 0.00 | 0.00 | 20 | 1009.5 |
| 20260501230520 | 30 | 144 | 9.7 | 11.3 | 0.00 | 0.00 | 0.00 | 20 | 1009.5 |
| 20260501230017 | 30 | 197 | 6.4 | 9.7 | 0.00 | 0.00 | 0.00 | 20 | 1009.5 |
| 20260501225515 | 30 | 193 | 12.9 | 16.1 | 0.00 | 0.00 | 0.00 | 20 | 1009.7 |